Flag for Pakistan Weather past 2 weeks in Lahore, Pakistan

Now
75 °F

Scattered clouds.


Feels Like: 75 °F
Forecast: 71 / 80 °F
Wind: 10 mph from Northeast

Location: Lahore Airport

Current Time: Sep 3, 2014 at 7:50:03 AM

Latest Report: Sep 3, 2014 at 6:55 AM


Visibility: 3 mi

Pressure: 29.71 "Hg

Humidity: 89%

Dew point: 72 °F

Location of LahoreLocation

Historic Weather in Lahore — Graph

°F

Lahore temperature yesterday

Maximum temperature yesterday: 81 °F (at 12:30 PM)
Minimum temperature yesterday: 75 °F (at 12:25 AM)
Average temperature yesterday: 77 °F

Past Weeks' High & Low Weather Summary

 TemperatureHumidityPressure
High104 °F (Aug 22, 2:55 PM)94% (Sep 1, 9:59 AM)29.80 "Hg (Sep 1, 9:59 AM)
Low73 °F (Sep 3, 5:55 AM)19% (Aug 30, 9:55 PM)29.53 "Hg (Aug 27, 4:25 PM)
Average88 °F60%29.66 "Hg
* Reported Aug 19 6:25 AM — Sep 3 6:55 AM, Lahore, Weather by CustomWeather, © 2014

Note: Actual official high and low records may vary slightly from our data, if they occured in-between our weather recording intervals... More about our weather records

Advertising

Lahore weather history for previous 24 hours

 ConditionsComfort  
Time TempWeatherWind HumidityBarometerVisibility
6:55 AM
Sep 3
75 °FScattered clouds.10 mph89%29.71 "Hg3 mi
6:25 AM75 °FScattered clouds.9 mph83%29.71 "Hg2 mi
5:55 AM73 °FScattered clouds.10 mph94%29.71 "Hg2 mi
4:55 AM75 °FPartly cloudy.12 mph83%29.71 "Hg2 mi
3:25 AM75 °FPartly cloudy.7 mph83%29.71 "Hg2 mi
2:55 AM75 °FPartly cloudy.9 mph83%29.71 "Hg2 mi
2:25 AM75 °FPartly cloudy.9 mph83%29.71 "Hg2 mi
1:55 AM75 °FPartly cloudy.7 mph83%29.71 "Hg2 mi
1:25 AM75 °FPartly cloudy.8 mph83%29.71 "Hg2 mi
12:25 AM75 °FLight rain. Passing clouds.5 mph83%29.71 "Hg2 mi
11:55 PM
Sep 2
75 °FPassing clouds.6 mph83%29.71 "Hg2 mi
10:55 PM75 °FPassing clouds.7 mph83%29.71 "Hg2 mi
10:25 PM75 °FPassing clouds.6 mph89%29.71 "Hg2 mi
9:55 PM77 °FPassing clouds.7 mph83%29.71 "Hg2 mi
9:25 PM77 °FPassing clouds.7 mph83%29.71 "Hg2 mi
8:55 PM77 °FPassing clouds.7 mph83%29.71 "Hg2 mi
8:25 PM77 °FPassing clouds.7 mph79%29.71 "Hg2 mi
8:00 PM77 °FPassing clouds.9 mph79%29.68 "Hg2 mi
7:25 PM75 °FPartly cloudy.10 mph83%29.68 "Hg3 mi
6:55 PM77 °FPartly cloudy.14 mph79%29.68 "Hg3 mi
6:25 PM77 °FPartly cloudy.13 mph89%29.68 "Hg3 mi
5:55 PM79 °FBroken clouds.21 mph84%29.68 "Hg3 mi
5:25 PM79 °FBroken clouds.18 mph79%N/A3 mi
4:55 PM79 °FBroken clouds.17 mph84%29.68 "Hg3 mi
4:25 PM79 °FBroken clouds.16 mph84%29.68 "Hg3 mi
4:00 PM81 °FBroken clouds.17 mph79%29.68 "Hg3 mi
3:29 PM81 °FBroken clouds.15 mph84%29.71 "Hg3 mi
2:59 PM81 °FBroken clouds.14 mph84%29.71 "Hg3 mi
1:59 PM81 °FBroken clouds.13 mph84%29.71 "Hg3 mi
1:29 PM81 °FBroken clouds.12 mph84%29.74 "Hg3 mi
12:59 PM81 °FBroken clouds.10 mph84%29.74 "Hg3 mi
12:30 PM81 °FBroken clouds.14 mph84%29.74 "Hg2 mi
11:29 AM79 °FBroken clouds.13 mph84%29.77 "Hg2 mi
10:59 AM79 °FBroken clouds.12 mph84%29.77 "Hg2 mi
10:29 AM79 °FBroken clouds.12 mph84%29.62 "Hg2 mi
9:59 AM79 °FBroken clouds.12 mph84%29.77 "Hg2 mi
9:29 AM77 °FBroken clouds.9 mph94%29.77 "Hg2 mi
9:00 AM77 °FDrizzle. Broken clouds.8 mph89%29.74 "Hg2 mi
8:30 AM77 °FDrizzle. Broken clouds.9 mph89%29.74 "Hg2 mi
8:00 AM77 °FDrizzle. Broken clouds.8 mph89%29.74 "Hg2 mi
7:30 AM77 °FFog.8 mph83%29.74 "Hg1 mi
7:00 AM77 °FFog.7 mph83%29.74 "Hg1 mi
Weather by CustomWeather, © 2014

See weather overviewHow to use our weather pages